Regional Weather Roundup
Issued by NWS

Home | Current Version | Previous Version | Text Only | Print | Product List | Glossary Off
Versions: 1 2 3 4 5 6 7 8 9 10 11 12 13 14 15 16 17 18 19 20 21 22 23 24 25 26 27 28 29 30 31 32 33 34 35 36 37 38 39 40 41 42 43 44 45 46 47 48 49 50

858
ASUS43 KDMX 181606
RWRIA

WEATHER ROUNDUP FOR IOWA
NATIONAL WEATHER SERVICE DES MOINES IA
1000 AM CST MON DEC 18 2017

NOTE: "FAIR" INDICATES FEW OR NO CLOUDS BELOW 12,000 FEET WITH NO
SIGNIFICANT WEATHER AND/OR OBSTRUCTIONS TO VISIBILITY.

* - THESE STATIONS ARE NOT NWS STATIONS...THUS NOT UNDER NWS
QUALITY CONTROL.  THEY ALSO DO NOT REPORT WEATHER SUCH
AS PRECIPITATION OR FOG.

IAZ001>003-012>014-020>022-031>034-043>046-181700-
   NORTHWEST IOWA

CITY           SKY/WX    TMP DP  RH WIND       PRES   REMARKS
CARROLL *      SUNNY     34  30  86 SW17G26   29.88R WCI  23
CHEROKEE *     SUNNY     31  31  98 SW7       29.87R WCI  25
DENISON *      SUNNY     34  30  86 SW6G14    29.91S WCI  29
LE MARS *      SUNNY     28  27  93 S7        29.86S WCI  21
ORANGE CITY *  SUNNY     30  28  93 SW7       29.84S WCI  23
SHELDON *      SUNNY     30  28  93 SW9       29.82S WCI  22
SIOUX CITY     SUNNY     29  27  92 S3        29.88S
SPENCER        SUNNY     31  27  85 SW12      29.83F WCI  22
STORM LAKE *   SUNNY     32  28  86 W14       29.85R WCI  22
$$

IAZ055>058-069>071-079>083-090>094-181700-
   SOUTHWEST IOWA

CITY           SKY/WX    TMP DP  RH WIND       PRES   REMARKS
ATLANTIC *     SUNNY     34  32  93 S12       29.93R WCI  25
AUDUBON *      SUNNY     34  30  86 SW13      29.92R WCI  25
CLARINDA *     SUNNY     36  36 100 SW10      30.00F WCI  28
COUNCIL BLFS * SUNNY     34  34 100 SW14      29.94R WCI  24
CRESTON *      CLOUDY    36  34  93 SW17G23   29.96F FOG     WCI  25
HARLAN  *      SUNNY     32  32 100 SW13      29.96R WCI  22
LAMONI         CLOUDY    35  34  96 SW16      29.99R FOG     WCI  25
RED OAK *      SUNNY     34  34 100 S13       29.97S WCI  25
SHENANDOAH *   SUNNY     37  34  87 SW13      30.00R WCI  29
$$

IAZ047>049-059>061-072>074-084-181700-
   CENTRAL IOWA

CITY           SKY/WX    TMP DP  RH WIND       PRES   REMARKS
AMES           CLOUDY    32  32 100 S10       29.92F FOG     WCI  24
ANKENY *       CLOUDY    34  32  93 S9        29.95F FOG     WCI  26
BOONE *        CLOUDY    32  30  93 S12       29.88F FOG     WCI  23
CHARITON *     CLOUDY    34  34 100 SW14      29.98R FOG     WCI  24
DES MOINES     MOSUNNY   34  33  96 S12       29.95S FOG     WCI  25
GRINNELL*      FOG       31  30  97 SW10      29.96S VSB 1/4 WCI  22
KNOXVILLE *    PTSUNNY   34  34 100 SW12      29.96R FOG     WCI  25
MARSHALLTOWN   FOG       29  28  96 S12       29.92F VSB 1   WCI  19
NEWTON *       FOG       32  32 100 SW9       29.96R VSB 3/4 WCI  24
PELLA *        CLOUDY    33  32  96 S7        29.99R FOG     WCI  27
PERRY *          N/A     36  33  90 S10       29.91S WCI  28
$$

IAZ004>006-015-016-023>025-035-036-181700-
   NORTH CENTRAL IOWA

CITY           SKY/WX    TMP DP  RH WIND       PRES   REMARKS
ALGONA *       SUNNY     28  28 100 S13       29.85R FOG     WCI  18
CLARION *      CLOUDY    28  28 100 S10       29.88R FOG     WCI  19
ESTHERVILLE    SUNNY     29  27  92 SW10      29.82F WCI  20
FORT DODGE *   CLOUDY    32  29  88 SW9G17    29.88S WCI  24
MASON CITY     CLOUDY    29  28  96 S9        29.87F FOG     WCI  20
FOREST CITY *    N/A     30  30 100 SW6       29.86R FOG     WCI  24
WEBSTER CITY * CLOUDY    30  30 100 S13       29.86F FOG     WCI  20
IOWA FALLS *     N/A     30  28  94 SW13      29.90F FOG     WCI  20
$$

IAZ007>011-017>019-026>030-037>042-050>054-066-181700-
   NORTHEAST IOWA

CITY           SKY/WX    TMP DP  RH WIND       PRES   REMARKS
CEDAR RAPIDS   CLOUDY    32  29  88 SW9       29.95S FOG     WCI  24
CLINTON *      SUNNY     35  31  85 W16       29.98R WCI  25
DECORAH *      CLOUDY    28  28 100 VRB6G13   29.88S FOG     WCI  22
DUBUQUE        CLOUDY    31  29  92 SW12      29.92S FOG     WCI  22
MONTICELLO *   MOSUNNY   32  30  93 W10       29.95R FOG     WCI  24
OELWEIN *      CLOUDY    30  30 100 SW10      29.92S FOG     WCI  21
WATERLOO       MOSUNNY   30  26  85 SW7       29.92S FOG     WCI  23
$$

IAZ064-065-067-068-078-181700-
   EAST CENTRAL IOWA

CITY           SKY/WX    TMP DP  RH WIND       PRES   REMARKS
DAVENPORT      SUNNY     35  31  85 W13       30.00R FOG     WCI  26
IOWA CITY      SUNNY     35  30  82 SW8       30.00R HAZE    WCI  29
MT. PLEASANT * SUNNY     42  38  89 W12       30.00R FOG
MUSCATINE *    SUNNY     39  34  81 W9        30.01R WCI  33
QUAD CITIES    SUNNY     39  34  82 W14       29.98R WCI  31
$$

IAZ062-063-075>077-085>089-095>099-181700-
   SOUTHEAST IOWA

CITY           SKY/WX    TMP DP  RH WIND       PRES   REMARKS
BURLINGTON     SUNNY     44  37  76 W14       30.00R
FAIRFIELD *    SUNNY     39  37  93 SW9       29.99R FOG     WCI  33
FORT MADISON * SUNNY     45  37  76 W10       30.01S
KEOKUK *       MOSUNNY   46  39  76 W15G22    30.01S
OSKALOOSA *    FOG       32  32  99 SW8       29.99S VSB 1   WCI  25
OTTUMWA        PTSUNNY   36  34  92 SW9       29.99R FOG     WCI  29
WASHINGTON *   SUNNY     37  37 100 SW13      30.01R FOG     WCI  29
$$

ABBREVIATIONS USED IN REMARKS
   TC - TEMPERATURES IN CELSIUS
  WCI - WIND CHILL INDEX
   HX - HEAT INDEX
  VSB - VISIBILITY
$$





USA.gov is the U.S. government's official web portal to all federal, state and local government web resources and services.